Weather History for KLBX - December, 2013

Change the Weather History Date:

Saturday, December 14, 2013

  Actual Average Record
Temperature  
Mean Temperature 52 °F -  
Max Temperature 61 °F 62 °F 78 °F (2011)
Min Temperature 41 °F 44 °F 32 °F (2004)
Degree Days  
Heating Degree Days 14    
Growing Degree Days 2 (Base 50)    
Moisture  
Dew Point 48 °F    
Average Humidity 87    
Maximum Humidity 100    
Minimum Humidity 60    
Precipitation  
Precipitation 0.00 in - - ()
Sea Level Pressure  
Sea Level Pressure 29.99 in    
Wind  
Wind Speed 4 mph (NW)    
Max Wind Speed 22 mph    
Max Gust Speed 33 mph    
Visibility 6 miles    
Events Fog    
Averages and records for this station are not official NWS values.
T = Trace of Precipitation, MM = Missing Value Source: NWS Daily Summary

Daily Weather History Graph

Daily Weather History Graph

Search for Another Location

Airport or City:

Trip Planner

Search our weather history database for the weather conditions in past years. The results will help you decide how hot, cold, wet, or windy it might be!

Date:

Astronomy

Dec. 14, 2013 Rise Set
Actual Time 7:07 AM CST 5:25 PM CST
Civil Twilight 6:41 AM CST 5:51 PM CST
Nautical Twilight 6:12 AM CST 6:21 PM CST
Astronomical Twilight 5:43 AM CST 6:50 PM CST
Moon 3:41 PM CST (12/14) 4:37 AM CST (12/14)
Length of Visible Light 11h 10m
Length of Day
10h 18m
Waxing Gibbous, 94% of the Moon is Illuminated
Dec 14
Waxing Gibbous
Dec 17
Full
Dec 25
Last Quarter
Jan 1
New
Jan 7
First Quarter

Hourly Weather History & Observations

Time (CST) Temp. Windchill Dew Point Humidity Pressure Visibility Wind Dir Wind Speed Gust Speed Precip Events Conditions
12:03 AM 55.4 °F - 53.6 °F 94% 29.92 in 1.8 mi Calm Calm - N/A   Overcast
12:13 AM 55.4 °F - 53.6 °F 94% 29.92 in 0.5 mi NW 3.5 mph - N/A Fog Fog
12:27 AM 53.6 °F - 53.6 °F 100% 29.91 in 2.0 mi Calm Calm - N/A   Overcast
12:33 AM 53.6 °F - 53.6 °F 100% 29.92 in 4.0 mi Calm Calm - N/A   Mostly Cloudy
12:41 AM 53.6 °F - 53.6 °F 100% 29.91 in 4.0 mi Calm Calm - N/A   Mostly Cloudy
12:50 AM 53.6 °F - 53.6 °F 100% 29.91 in 4.0 mi Calm Calm - N/A   Scattered Clouds
12:53 AM 53.1 °F - 53.1 °F 100% 29.91 in 4.0 mi Calm Calm - N/A   Partly Cloudy
1:30 AM 53.6 °F - 51.8 °F 94% 29.90 in 3.0 mi Calm Calm - N/A   Mostly Cloudy
1:37 AM 51.8 °F - 51.8 °F 100% 29.91 in 2.5 mi Calm Calm - N/A   Mostly Cloudy
1:53 AM 53.1 °F - 52.0 °F 96% 29.90 in 3.0 mi Calm Calm - N/A   Overcast
2:18 AM 53.6 °F - 53.6 °F 100% 29.89 in 4.0 mi Calm Calm - N/A   Overcast
2:53 AM 53.1 °F - 52.0 °F 96% 29.89 in 3.0 mi Calm Calm - N/A   Overcast
3:15 AM 51.8 °F - 51.8 °F 100% 29.88 in 2.5 mi SSW 3.5 mph - N/A   Mostly Cloudy
3:25 AM 51.8 °F - 51.8 °F 100% 29.88 in 3.0 mi Calm Calm - N/A   Mostly Cloudy
3:53 AM 53.1 °F - 52.0 °F 96% 29.88 in 3.0 mi Calm Calm - N/A   Mostly Cloudy
4:14 AM 51.8 °F - 51.8 °F 100% 29.88 in 3.0 mi Calm Calm - N/A   Mostly Cloudy
4:21 AM 51.8 °F - 51.8 °F 100% 29.88 in 3.0 mi Calm Calm - N/A   Mostly Cloudy
4:53 AM 54.0 °F - 52.0 °F 93% 29.88 in 6.0 mi Calm Calm - N/A   Mostly Cloudy
5:11 AM 53.6 °F - 51.8 °F 94% 29.88 in 7.0 mi West 3.5 mph - N/A   Scattered Clouds
5:38 AM 53.6 °F - 51.8 °F 94% 29.89 in 7.0 mi NW 3.5 mph - N/A   Mostly Cloudy
5:53 AM 54.0 °F - 52.0 °F 93% 29.89 in 6.0 mi NW 3.5 mph - N/A   Overcast
6:53 AM 53.1 °F - 51.1 °F 93% 29.92 in 7.0 mi Variable 3.5 mph - N/A   Overcast
7:05 AM 53.6 °F - 51.8 °F 94% 29.92 in 7.0 mi Variable 4.6 mph - N/A   Overcast
7:53 AM 54.0 °F - 52.0 °F 93% 29.94 in 5.0 mi WNW 3.5 mph - N/A   Overcast
8:03 AM 53.6 °F - 53.6 °F 100% 29.93 in 4.0 mi NW 3.5 mph - N/A   Mostly Cloudy
8:18 AM 55.4 °F - 53.6 °F 94% 29.94 in 4.0 mi Variable 3.5 mph - N/A   Mostly Cloudy
8:53 AM 57.0 °F - 55.0 °F 93% 29.94 in 6.0 mi West 3.5 mph - N/A   Partly Cloudy
9:53 AM 61.0 °F - 52.0 °F 72% 29.98 in 10.0 mi NW 6.9 mph 17.3 mph N/A   Clear
10:53 AM 59.0 °F - 50.0 °F 72% 29.98 in 10.0 mi NW 10.4 mph 19.6 mph N/A   Mostly Cloudy
11:53 AM 61.0 °F - 50.0 °F 67% 29.97 in 10.0 mi NW 11.5 mph 23.0 mph N/A   Mostly Cloudy
12:53 PM 60.1 °F - 46.0 °F 60% 29.97 in 10.0 mi NW 13.8 mph 21.9 mph N/A   Mostly Cloudy
1:53 PM 57.9 °F - 46.9 °F 67% 30.00 in 10.0 mi NW 13.8 mph 29.9 mph N/A   Partly Cloudy
2:10 PM 55.4 °F - 46.4 °F 72% 30.01 in 10.0 mi NNW 17.3 mph 28.8 mph N/A   Mostly Cloudy
2:53 PM 53.1 °F - 46.0 °F 77% 30.03 in 10.0 mi NNW 18.4 mph 33.4 mph N/A   Overcast
3:53 PM 52.0 °F - 45.0 °F 77% 30.06 in 10.0 mi NNW 17.3 mph 25.3 mph N/A   Overcast
4:53 PM 51.1 °F - 43.0 °F 74% 30.09 in 10.0 mi NNW 16.1 mph 28.8 mph N/A   Overcast
5:53 PM 48.9 °F - 39.9 °F 71% 30.13 in 10.0 mi North 17.3 mph 26.5 mph N/A   Mostly Cloudy
6:53 PM 50.0 °F - 41.0 °F 71% 30.15 in 10.0 mi North 16.1 mph 20.7 mph N/A   Overcast
7:53 PM 48.9 °F - 39.0 °F 69% 30.19 in 9.0 mi North 21.9 mph 29.9 mph N/A   Overcast
8:25 PM 46.4 °F 40.7 °F 37.4 °F 71% 30.20 in 8.0 mi North 12.7 mph - N/A   Scattered Clouds
8:53 PM 46.0 °F 40.2 °F 37.0 °F 71% 30.21 in 8.0 mi North 12.7 mph - N/A   Partly Cloudy
9:53 PM 43.0 °F 38.2 °F 36.0 °F 76% 30.24 in 8.0 mi NNW 8.1 mph - N/A   Clear
10:53 PM 42.1 °F 35.7 °F 34.0 °F 73% 30.26 in 7.0 mi NNW 11.5 mph 20.7 mph N/A   Scattered Clouds
11:01 PM 42.8 °F 36.2 °F 33.8 °F 70% 30.26 in 7.0 mi NNW 12.7 mph - N/A   Mostly Cloudy
11:53 PM 41.0 °F 34.7 °F 33.1 °F 73% 30.27 in 7.0 mi NNW 10.4 mph - N/A   Overcast